Regional Weather Roundup
Issued by NWS Wakefield, VA

Home | Current Version | Previous Version | Graphics & Text | Print | Product List | Glossary On
Versions: 1 2 3 4 5 6 7 8 9 10 11 12 13 14 15 16 17 18 19 20 21 22 23 24 25 26 27 28 29 30 31 32 33 34 35 36 37 38 39 40 41 42 43 44 45 46 47 48 49 50
000
ASUS41 KAKQ 281910
RWRAKQ

REGIONAL WEATHER ROUNDUP
NATIONAL WEATHER SERVICE WAKEFIELD VA
300 PM EDT THU AUG 28 2014

Note: "fair" indicates few or no clouds below 12,000 feet with no
significant weather and/or obstructions to visibility. * = Denotes
station may not report precipitation (e.g., rain,snow,etc.),
thunder or fog.

VAZ042-051-052>054-056-282000-
NORTHERN VIRGINIA

CITY           SKY/WX    TMP DP  RH WIND       PRES   REMARKS
WASH NATIONAL  MOSUNNY   85  60  42 W15G23    29.97F
DULLES         PTSUNNY   80  60  50 NW14      29.98F
FORT BELVOIR   SUNNY     83  59  43 VRB7      29.97F
QUANTICO       MOSUNNY   84  60  44 N6        29.97F
FREDERICKSBRG* SUNNY     87  58  38 NW7G16    29.96F
STAFFORD*      SUNNY     83  61  47 NW8       30.01F
WARRENTON      SUNNY     87  68  53 NW9       29.97F
CULPEPER*      SUNNY    N/A N/A N/A NW7       29.97F
MANASSAS*      SUNNY     84  61  45 N8        29.98F
LEESBURG*      SUNNY     81  63  54 N10G16    29.99F
WINCHESTER     MOSUNNY   82  54  36 NW12G17   29.99F
$$

VAZ048-049-060>072-079>083-282000-
CENTRAL AND SOUTH CENTRAL VIRGINIA...AND NORTH CENTRAL NORTH CAROLINA

CITY           SKY/WX    TMP DP  RH WIND       PRES   REMARKS
RICHMOND       PTSUNNY   91  62  37 NW6       29.95F
CHESTERFIELD*  PTCLDY    88  63  42 NW6       29.97F
HANOVER        MOSUNNY   89  62  40 N8        29.97F
TAPPAHANNOCK*  SUNNY     88  46  23 NW6       29.96F
CHARLOTTSVILLE SUNNY     87  63  44 NE7       29.97F
ORANGE*        SUNNY     84  63  48 N3        29.99F
LOUISA*        SUNNY     86  66  51 NE5       29.97F
FARMVILLE*     MOSUNNY   90  66  45 SW3       29.95F
SOUTH HILL*    MOSUNNY   90  72  55 CALM      30.01F HX  96
ROANOKE RAPIDS PTCLDY    86  70  58 W3        29.95F
RALEIGH        MOSUNNY   90  70  51 VRB3      29.97F HX  95
$$

VAZ088>098-282000-
SOUTHEAST VIRGINIA

CITY           SKY/WX    TMP DP  RH WIND       PRES   REMARKS
NORFOLK        MOSUNNY   82  70  66 NE7       29.94F
VIRGINIA BEACH PTSUNNY   86  66  51 VRB6      29.94F
NORFOLK NAVAL  PTSUNNY   85  72  65 NE9       29.96F
WEST POINT*    MOSUNNY   89  48  24 NW9       29.96F
NEWPORT NEWS   PTSUNNY   89  69  51 NE7       29.94F
LANGLEY AFB    MOSUNNY   82  73  72 E7        29.94F
FORT EUSTIS    MOSUNNY   87  64  46 NW8       29.93F
WILLIAMSBURG*  MOSUNNY   91  70  49 N3        29.95F HX  97
FRANKLIN*      PTSUNNY   86  70  58 CALM      29.95S
WAKEFIELD      MOSUNNY   89  69  51 N8        29.95F
$$

VAZ020-022-025-037-045-282000-
WESTERN AND SOUTHWEST VIRGINIA

CITY           SKY/WX    TMP DP  RH WIND       PRES   REMARKS
STAUNTON*      SUNNY     86  60  40 N6        30.02F
HOT SPRINGS VA MOSUNNY   75  57  52 W8        30.18S
LYNCHBURG      SUNNY     86  68  54 S5        30.01F
DANVILLE       MOSUNNY   90  68  48 W7        29.98F
MARTINSVILLE   CLOUDY    90  70  52 NW5       30.02F HX  95
ROANOKE        MOSUNNY   87  64  46 W8        30.03F
BLACKSBURG     MOSUNNY   82  68  61 W5        30.10F
DUBLIN*        MOSUNNY   84  68  58 NW6       30.10S
MARION*        MOSUNNY  N/A N/A N/A W5        30.14F
HILLSVILLE*    MOSUNNY   82  64  56 NW6       30.12S
RICHLANDS*     MOCLDY    83  66  56 NW6       30.14F
WISE*          MOSUNNY   82  63  51 NE6       30.15F
ABINGDON*      PTSUNNY   84  68  58 E3        30.10F
$$

MDZ021>025-VAZ099-100-282000-
SOUTHERN MARYLAND AND THE DELMARVA PENINSULA

CITY           SKY/WX    TMP DP  RH WIND       PRES   REMARKS
PATUXENT RIVER MOSUNNY   83  64  52 NE12      29.94F
BAY BRIDGE APT   N/A     81  59  47 N10       29.95S
LEONARDTOWN    MOSUNNY   86  55  35 W5        29.96F
DOVER          SUNNY     81  60  48 NW17      29.93R
GEORGETOWN     SUNNY     83  59  44 NW8       29.93F
EASTON         NOT AVBL
CAMBRIDGE      MOSUNNY   81  59  47 N8        29.94F
SALISBURY      SUNNY     86  62  44 N9        29.92F
OCEAN CITY     SUNNY     85  60  42 N10       29.92S
WALLOPS ISLAND SUNNY     86  62  44 N8        29.93F
ACCOMACK*      NOT AVBL
$$

NCZ012>017-030>032-282000-
EASTERN NORTH CAROLINA

CITY           SKY/WX    TMP DP  RH WIND       PRES   REMARKS
ELIZABETH CITY MOSUNNY   87  71  58 VRB3      29.94F
AHOSKIE*       SUNNY     86  71  60 CALM      29.95F
EDENTON*       SUNNY     86  72  62 SW6       29.94F
CURRITUCK*     SUNNY     84  71  64 E8        29.95F
KILL DEVIL HLS SUNNY     83  72  70 N5        29.94S
MANTEO         SUNNY     84  72  68 CALM      29.95F
CAPE HATTERAS  MOSUNNY   85  68  56 W9        29.95F
GOLDSBORO      MOSUNNY   90  76  63 VRB3      29.94F HX 101
WASHINGTON     PTSUNNY   87  70  56 CALM      29.95F
GREENVILLE     MOSUNNY   88  72  58 W3        29.97F
NEW BERN       SUNNY     93  67  42 W6        29.96F HX  96
WILMINGTON     SUNNY     90  63  40 VRB7      29.96F
$$

VAZ048-282000-
ELSEWHERE

CITY           SKY/WX    TMP DP  RH WIND       PRES   REMARKS
HARRISBURG PA  MOSUNNY   79  54  41 NW12      29.97F
BALTIMORE      MOSUNNY   83  56  39 W14G24    29.95F
ANNAPOLIS      SUNNY     80  60  50 NW8       29.94F
ANDREWS AFB    SUNNY     83  59  44 NW14G22   29.96F
WILMINGTON DE  SUNNY     80  56  43 NW16      29.95F
PHILADELPHIA   MOSUNNY   80  55  42 W16G26    29.93F
WILDWOOD NJ*   SUNNY     79  61  53 W12G21    29.93S
ATLANTIC CITY  SUNNY     81  55  40 NW12      29.90F
HENDERSON NC   SUNNY     86  67  53 E3        29.98F
GREENSBORO     PTSUNNY   90  67  46 NE3       29.99F
ROCKY MOUNT    MOSUNNY   87  71  58 VRB5      29.96F
FAYETTEVILLE   SUNNY     95  67  39 NW8       29.95F HX  99
CHARLOTTE      SUNNY     90  63  40 SW6       30.01F
$$

VAZ100-282000-
MARINE

STATION/POSITION TIME  TEMP    WIND        PRES    WAVE   SWELL
                       AIR SEA DIR/SP/G            HT/PER HT/PER
                 (UTC) (F)     (DEG/KT/KT) (MB)    (FT/S) (FT/S)
44066 TX TWR #4  1900   72 73  330/ 14/ 17 1011.6R   7/14   7/14
CAPE MAY NJ      1900   77 80  310/ 17/ 21 1012.9S
LEWES DE         1900   76 77  360/ 13/ 17 1013.0F
15NM E FENWICK I 1900   75 74              1013.1S   5/13
OCEAN-CITY-INLET 1900   81 76  340/  6/  9 1012.8F
WACHAPREAGUE VA  1900   85 80  300/  3/  9 1013.7F
THOMAS POINT MD  1900   79 79  360/ 14/ 15 1014.7F
GOOSES REEF MD   1900   78      60/  8/ 10 1014.6F
COVE POINT MD    1900   77      30/ 10/ 11 1013.9F
SOLOMONS ISLAND  1900      80                N/A
BISHOPS HEAD MD  1900   81 83  300/ 10/ 14 1013.5F
PINEY POINT MD   1900          300/ 13/ 15   N/A
POTOMAC MD       1900   80      10/  6/  8 1013.5S
CAMBRIDGE MD     1900   78 80  340/  5/  8 1013.8F
LEWISETTA VA     1900   82 80  310/ 10/ 11 1013.7S
RAPPAHANNOCK LGT 1900          360/ 12/ 12 1014.5F
STINGRAY PT      1900   78      60/  8/ 10   N/A
YORK RVR RNG VA  1900   78      70/  9/  9 1013.5F
YORKTOWN VA      1900   83 80  310/ 11/ 12 1013.7F
JAMESTOWN VA     1900   82     320/  6/ 10   N/A
DOMINION TERM VA 1900   80     120/  7/ 10 1014.1F
KIPTOPEKE VA     1900      81  330/  6/  7   N/A
CHES BAY BRIDGE  1900   78 78   10/  7/  9 1013.7S
CAPE HENRY VA    1900   79     360/  6/  7 1012.9F
CHESAPEAKE LGHT  1800   78     320/  4/  5 1015.1S
WILLOUBY STN VA  1900   78      70/  7/  8 1012.9F
S CRANEY ISL VA  1900           20/  6/  7 1013.7F
CAPE HENRY BUOY  1900      80                N/A     3/13   2/13
1ST LANDING BUOY 1900   79      20/  8/ 12 1013.7F
CAPE CHARLES BUO 1900      78                N/A     3/13   3/13
OFFSHORE WE BUOY 1900      77                N/A     3/12   3/12
64NM E OF VA BCH 1900   76 76  350/ 12/ 14 1013.6F   4/11   3/11
DUCK PIER NC     1900   77 78   30/ 12/ 13 1013.3F
44056 DUCK FRF   1900                        N/A     3/11   2/11
OREGON INLET NC  1900   81 77   20/  8/ 10 1014.0S
HATTERAS NC      1900   85 78  250/  8/ 11 1014.8F
DIAMOND SHLS NC  1900   81     250/ 12/ 14 1014.5F   5/11   5/11
CAPE LOOKOUT NC  1800   81     250/ 11/ 14 1015.3F
$$


USA.gov is the U.S. government's official web portal to all federal, state and local government web resources and services.